Previsão horária em Alicun

Hoje, 22 Janeiro, Sexta-feira

Tempo Temperatura Precipitação Vento Pressão Humidade
00:00 +7°C° 0 mm 5 m/s 695 mmHg 85%
01:00 +8°C° 0.1 mm 4 m/s 695 mmHg 84%
02:00 +8°C° 0.1 mm 4 m/s 694 mmHg 82%
03:00 +9°C° 0.1 mm 3 m/s 694 mmHg 81%
04:00 +8°C° 0.5 mm 4 m/s 694 mmHg 84%
05:00 +9°C° 0.5 mm 5 m/s 694 mmHg 87%
06:00 +9°C° 0.5 mm 6 m/s 693 mmHg 90%
07:00 +9°C° 0.1 mm 7 m/s 694 mmHg 89%
08:00 +9°C° 0.1 mm 7 m/s 694 mmHg 88%
09:00 +9°C° 0.1 mm 8 m/s 694 mmHg 87%
10:00 +8°C° 0.1 mm 9 m/s 694 mmHg 84%
11:00 +8°C° 0.1 mm 10 m/s 694 mmHg 81%
12:00 +8°C° 0.1 mm 11 m/s 694 mmHg 78%
13:00 +8°C° 0.1 mm 11 m/s 694 mmHg 76%
14:00 +7°C° 0.1 mm 11 m/s 694 mmHg 74%
15:00 +7°C° 0.1 mm 11 m/s 694 mmHg 72%
16:00 +6°C° 0.3 mm 10 m/s 694 mmHg 76%
17:00 +6°C° 0.3 mm 8 m/s 694 mmHg 80%
18:00 +5°C° 0.3 mm 7 m/s 695 mmHg 84%
19:00 +5°C° 0.1 mm 7 m/s 695 mmHg 85%
20:00 +4°C° 0.1 mm 7 m/s 696 mmHg 86%
21:00 +4°C° 0.1 mm 6 m/s 696 mmHg 87%
22:00 +4°C° 0 mm 6 m/s 696 mmHg 88%
23:00 +3°C° 0 mm 6 m/s 696 mmHg 89%

Amanhã, 23 Janeiro, Sábado

Tempo Temperatura Precipitação Vento Pressão Humidade
00:00 +3°C° 0 mm 6 m/s 696 mmHg 91%
01:00 +3°C° 0 mm 6 m/s 696 mmHg 91%
02:00 +2°C° 0 mm 6 m/s 696 mmHg 91%
03:00 +2°C° 0 mm 5 m/s 696 mmHg 91%
04:00 +2°C° 0 mm 5 m/s 696 mmHg 91%
05:00 +2°C° 0 mm 5 m/s 696 mmHg 91%
06:00 +1°C° 0 mm 5 m/s 696 mmHg 91%
07:00 +2°C° 0 mm 5 m/s 696 mmHg 87%
08:00 +3°C° 0 mm 5 m/s 697 mmHg 84%
09:00 +4°C° 0 mm 6 m/s 697 mmHg 80%
10:00 +4°C° 0 mm 6 m/s 697 mmHg 77%
11:00 +5°C° 0 mm 6 m/s 697 mmHg 74%
12:00 +6°C° 0 mm 7 m/s 697 mmHg 70%
13:00 +6°C° 0 mm 7 m/s 696 mmHg 71%
14:00 +6°C° 0 mm 7 m/s 696 mmHg 71%
15:00 +8°C° 0 mm 6 m/s 695 mmHg 71%
16:00 +7°C° 0 mm 6 m/s 695 mmHg 75%
17:00 +7°C° 0 mm 5 m/s 695 mmHg 79%
18:00 +7°C° 0 mm 4 m/s 694 mmHg 83%
19:00 +7°C° 0.1 mm 5 m/s 694 mmHg 84%
20:00 +7°C° 0.1 mm 5 m/s 694 mmHg 85%
21:00 +8°C° 0.1 mm 6 m/s 694 mmHg 86%
22:00 +8°C° 0.2 mm 6 m/s 694 mmHg 87%
23:00 +8°C° 0.2 mm 6 m/s 693 mmHg 89%

Depois de amanhã, 24 Janeiro, Domingo

Tempo Temperatura Precipitação Vento Pressão Humidade
00:00 +8°C° 0.2 mm 7 m/s 693 mmHg 90%
01:00 +8°C° 0.3 mm 7 m/s 692 mmHg 91%
02:00 +9°C° 0.3 mm 7 m/s 692 mmHg 92%
03:00 +9°C° 0.3 mm 8 m/s 692 mmHg 93%
04:00 +9°C° 0.4 mm 7 m/s 692 mmHg 94%
05:00 +9°C° 0.4 mm 7 m/s 692 mmHg 95%
06:00 +9°C° 0.4 mm 7 m/s 693 mmHg 95%
07:00 +9°C° 0.1 mm 7 m/s 693 mmHg 92%
08:00 +8°C° 0.1 mm 6 m/s 694 mmHg 89%
09:00 +8°C° 0.1 mm 6 m/s 694 mmHg 86%
10:00 +9°C° 0 mm 6 m/s 694 mmHg 75%
11:00 +10°C° 0 mm 6 m/s 695 mmHg 64%
12:00 +11°C° 0 mm 6 m/s 695 mmHg 54%
13:00 +11°C° 0 mm 6 m/s 695 mmHg 53%
14:00 +11°C° 0 mm 6 m/s 695 mmHg 51%
15:00 +12°C° 0 mm 5 m/s 695 mmHg 50%
16:00 +11°C° 0 mm 4 m/s 695 mmHg 58%
17:00 +9°C° 0 mm 3 m/s 694 mmHg 67%
18:00 +8°C° 0 mm 2 m/s 694 mmHg 76%
19:00 +8°C° 0 mm 2 m/s 695 mmHg 77%
20:00 +8°C° 0 mm 1 m/s 695 mmHg 79%
21:00 +8°C° 0 mm 1 m/s 695 mmHg 81%
22:00 +8°C° 0 mm 1 m/s 695 mmHg 82%
23:00 +8°C° 0 mm 1 m/s 695 mmHg 84%

25 Janeiro, Segunda-feira

Tempo Temperatura Precipitação Vento Pressão Humidade
00:00 +7°C° 0 mm 1 m/s 696 mmHg 85%
01:00 +7°C° 0 mm 1 m/s 696 mmHg 85%
02:00 +7°C° 0 mm 1 m/s 696 mmHg 86%
03:00 +7°C° 0 mm 1 m/s 696 mmHg 87%
04:00 +7°C° 0 mm 1 m/s 696 mmHg 88%
05:00 +7°C° 0 mm 1 m/s 696 mmHg 89%
06:00 +7°C° 0 mm 1 m/s 696 mmHg 90%
07:00 +7°C° 0 mm 1 m/s 696 mmHg 87%
08:00 +8°C° 0 mm 1 m/s 697 mmHg 84%
09:00 +9°C° 0 mm 1 m/s 698 mmHg 81%
10:00 +10°C° 0 mm 1 m/s 698 mmHg 75%
11:00 +10°C° 0 mm 2 m/s 698 mmHg 69%
12:00 +13°C° 0 mm 2 m/s 699 mmHg 63%
13:00 +12°C° 0 mm 3 m/s 698 mmHg 63%
14:00 +12°C° 0 mm 3 m/s 698 mmHg 64%
15:00 +12°C° 0 mm 4 m/s 698 mmHg 64%
16:00 +11°C° 0 mm 3 m/s 698 mmHg 70%
17:00 +10°C° 0 mm 2 m/s 698 mmHg 77%
18:00 +10°C° 0 mm 1 m/s 699 mmHg 84%
19:00 +10°C° 0 mm 1 m/s 699 mmHg 85%
20:00 +10°C° 0 mm 1 m/s 699 mmHg 87%
21:00 +10°C° 0 mm 1 m/s 700 mmHg 89%
22:00 +10°C° 0 mm 1 m/s 700 mmHg 89%
23:00 +10°C° 0 mm 1 m/s 700 mmHg 89%

26 Janeiro, Terça-feira

Tempo Temperatura Precipitação Vento Pressão Humidade
00:00 +10°C° 0 mm 1 m/s 700 mmHg 89%
01:00 +10°C° 0.1 mm 1 m/s 700 mmHg 89%
02:00 +10°C° 0.1 mm 1 m/s 700 mmHg 89%
03:00 +10°C° 0.1 mm 1 m/s 700 mmHg 90%
04:00 +10°C° 0 mm 1 m/s 700 mmHg 91%
05:00 +9°C° 0 mm 1 m/s 700 mmHg 92%
06:00 +9°C° 0 mm 1 m/s 700 mmHg 93%
07:00 +10°C° 0 mm 1 m/s 700 mmHg 91%
08:00 +11°C° 0 mm 1 m/s 701 mmHg 89%
09:00 +11°C° 0 mm 1 m/s 702 mmHg 87%
10:00 +12°C° 0 mm 2 m/s 702 mmHg 83%
11:00 +13°C° 0 mm 2 m/s 702 mmHg 79%
12:00 +13°C° 0 mm 3 m/s 702 mmHg 75%
13:00 +14°C° 0 mm 3 m/s 702 mmHg 74%
14:00 +14°C° 0 mm 3 m/s 702 mmHg 73%
15:00 +15°C° 0 mm 2 m/s 701 mmHg 72%
16:00 +14°C° 0 mm 2 m/s 701 mmHg 77%
17:00 +13°C° 0 mm 2 m/s 701 mmHg 82%
18:00 +12°C° 0 mm 1 m/s 702 mmHg 87%
19:00 +12°C° 0 mm 1 m/s 702 mmHg 87%
20:00 +12°C° 0 mm 1 m/s 702 mmHg 88%
21:00 +12°C° 0 mm 1 m/s 703 mmHg 88%
22:00 +12°C° 0 mm 1 m/s 702 mmHg 89%
23:00 +11°C° 0 mm 1 m/s 702 mmHg 90%

27 Janeiro, Quarta-feira

Tempo Temperatura Precipitação Vento Pressão Humidade
00:00 +11°C° 0 mm 1 m/s 702 mmHg 92%
01:00 +11°C° 0 mm 1 m/s 702 mmHg 92%
02:00 +10°C° 0 mm 1 m/s 702 mmHg 93%
03:00 +10°C° 0 mm 1 m/s 701 mmHg 94%
04:00 +9°C° 0 mm 0 m/s 701 mmHg 94%
05:00 +9°C° 0 mm 0 m/s 701 mmHg 95%
06:00 +9°C° 0 mm 0 m/s 701 mmHg 95%
07:00 +10°C° 0 mm 0 m/s 702 mmHg 92%
08:00 +11°C° 0 mm 0 m/s 702 mmHg 89%
09:00 +12°C° 0 mm 0 m/s 702 mmHg 86%
10:00 +14°C° 0 mm 1 m/s 703 mmHg 82%
11:00 +15°C° 0 mm 1 m/s 703 mmHg 77%
12:00 +16°C° 0 mm 1 m/s 703 mmHg 73%
13:00 +16°C° 0 mm 1 m/s 703 mmHg 72%
14:00 +17°C° 0 mm 2 m/s 702 mmHg 72%
15:00 +17°C° 0 mm 2 m/s 702 mmHg 71%
16:00 +16°C° 0 mm 2 m/s 702 mmHg 77%
17:00 +15°C° 0 mm 2 m/s 702 mmHg 83%
18:00 +14°C° 0 mm 1 m/s 702 mmHg 89%
19:00 +13°C° 0 mm 1 m/s 702 mmHg 91%
20:00 +13°C° 0 mm 1 m/s 702 mmHg 92%
21:00 +12°C° 0 mm 1 m/s 702 mmHg 93%
22:00 +12°C° 0 mm 1 m/s 702 mmHg 94%
23:00 +11°C° 0 mm 1 m/s 702 mmHg 94%
Mostrar mais

Necessitamos do seu Consentimento

A Meteoprog e os seus Fornecedores de Serviços podem armazenar e aceder a dados pessoais como cookies, identificadores do dispositivo ou outras tecnologias semelhantes existentes no seu dispositivo e processar estes dados para personalizar conteúdos e anúncios, assim como funcionalidades nas redes sociais e análise de tráfego.

  • Armazenar e/ou aceder a informações no seu dispositivo

    Os cookies, identificadores do dispositivo ou outras informações podem ser armazenados ou acedidos no seu dispositivo, para os fins acima indicados.

  • Anúncios e conteúdos personalizados, medição de anúncios e conteúdos, dados sobre o público-alvo e desenvolvimento de produtos

    Os anúncios e os conteúdos podem ser personalizados com base num perfil. Podem ser adicionados dados adicionais para uma maior personalização dos anúncios e dos conteúdos. A eficácia dos anúncios e dos conteúdos pode ser medida. Podem ser obtidas informações sobre o público que visualizou os anúncios e os conteúdos. Estes dados podem ser usados para desenvolver ou melhorar sistemas, softwares ou a experiência do utilizador.

Ao clicar em "Eu concordo”, permitirá o uso de cookies, identificadores do dispositivo e web beacons mencionados ou outras tecnologias semelhantes. As configurações do navegador do seu dispositivo podem ser alteradas.

Para certos fins, podem ser invocados interesses legítimos ao invés de consentimento. Pode ler mais informação sobre este assunto na nossa Política de Privacidade e Cookies.